Torna al catalogo

BREEZE-M DEB

TANK

AttivoHEO
NORAD 39477·DEBRIS·🇷🇺 Russia

Lanciato Dec 8, 2013 da Baikonur Cosmodrome

Loading…

Prossimi Passaggi (prossime 24 ore)

TLE

AggiornatoSource: Space-Track

Epoca: Sep 13, 2026, 17:32 UTC

1 39477U 13073B   26256.73095108  .00000406  00000-0  24316-3 0  9997
2 39477  50.7533 270.3244 5084715 138.8442 273.5143  5.39634784246812

Traccia BREEZE-M DEB in tempo reale con AllMySat

Download on the App Store